Wind_Speed
6 5 2 1 1 1 3 5 7 17 11 7 14 4 7 7 2 6 11 7 16 16 14 12 13 12 12 12 12 12 12 12 12 12 14 13 14 14 15 16 17 18 18 18 18 18 18 19 17
7 2 0 1 2 3 3 6 16 14 14 19 8 13 5 4 4 11 9 15 16 16 14 13 13 13 12 13 10 10 11 12 12 12 12 13 13 15 14 16 18 18 18 17 17 16 16 16 16
6 2 0 1 1 3 5 7 17 15 18 9 5 8 4 3 10 11 13 17 16 14 13 13 14 13 12 12 10 9 10 10 10 11 12 14 14 14 14 15 17 17 16 15 14 14 14 14 15
3 3 2 1 5 3 3 14 19 21 15 4 12 9 5 6 11 8 19 17 16 14 13 12 12 11 10 10 10 9 8 8 9 10 12 12 14 15 15 16 16 15 15 15 14 12 8 9 9
2 0 0 3 6 5 9 14 15 20 12 8 1 6 10 3 9 21 18 17 17 14 12 10 10 12 10 9 8 9 8 8 9 10 10 11 13 14 15 14 13 13 13 13 14 12 12 12 11
1 1 2 4 11 11 11 9 14 10 9 10 12 12 5 9 21 18 18 17 14 13 11 10 10 11 11 9 9 8 8 8 8 10 11 11 13 14 14 14 12 12 12 12 13 11 10 10 11
1 1 2 5 12 8 6 8 6 9 11 6 13 9 6 15 17 18 18 16 13 12 9 10 9 9 11 9 9 9 8 7 8 9 10 10 12 13 14 14 13 11 11 10 12 13 13 12 11
2 2 3 6 6 4 2 4 4 8 8 9 10 6 10 14 18 19 16 15 13 11 10 9 9 9 10 9 9 10 9 9 8 9 10 10 12 14 14 14 11 10 9 9 10 10 10 10 8
3 4 2 1 3 3 6 5 3 8 14 6 2 13 19 22 22 19 17 14 13 11 10 9 9 10 10 10 10 11 10 10 9 9 9 10 11 13 12 11 11 9 8 7 8 7 6 7 8
1 3 6 9 3 3 6 9 9 8 7 8 15 19 24 23 21 20 18 16 14 12 10 9 10 10 10 9 11 11 10 9 9 9 9 9 11 11 12 12 12 11 8 6 4 3 3 5 5
2 2 8 13 7 6 9 10 4 13 3 9 23 23 22 22 19 17 16 16 14 12 10 9 9 9 9 9 10 9 8 9 8 9 10 10 10 10 11 11 10 9 7 4 3 4 5 6 5
2 3 10 6 11 8 9 7 8 7 3 14 19 23 23 19 19 18 16 15 14 14 11 9 9 9 8 11 9 10 9 9 8 9 10 11 10 10 10 9 9 8 6 5 5 6 6 5 4
4 2 8 7 11 10 7 10 6 4 7 17 19 19 17 17 17 15 14 13 14 14 12 11 10 9 11 11 11 10 10 10 9 8 9 11 9 10 9 9 8 9 7 8 9 9 10 11 8
3 4 7 2 13 10 13 7 6 5 8 16 17 17 15 16 17 15 14 15 15 14 13 13 11 10 13 11 11 10 10 9 8 8 8 11 8 8 9 7 7 8 8 8 8 8 8 8 8
9 10 10 11 12 6 16 7 9 8 9 16 17 14 14 14 14 15 15 15 16 15 14 14 12 12 14 12 10 9 9 7 7 9 10 9 7 6 5 6 6 6 6 8 8 6 5 5 5
4 5 7 6 9 9 6 15 14 7 11 14 16 14 14 13 15 13 14 13 14 14 15 15 13 13 13 12 11 9 7 7 8 10 8 5 3 3 3 3 3 3 5 8 8 8 5 4 3
2 4 4 8 4 10 4 6 16 13 12 15 14 15 13 12 13 13 14 14 15 15 15 15 13 13 12 12 11 10 7 7 7 8 7 5 5 4 2 5 4 4 5 7 8 6 6 5 5
7 5 3 5 9 13 8 4 15 17 14 14 12 13 14 14 16 17 16 15 15 14 15 15 12 15 13 12 11 11 8 8 7 6 8 5 6 3 3 4 5 5 5 6 8 8 7 6 7
7 6 5 4 9 9 5 9 16 18 19 13 12 12 14 15 15 16 16 17 16 15 15 16 15 17 15 11 10 9 8 10 8 5 9 6 7 4 2 4 3 4 4 6 9 6 7 6 8
4 5 4 6 5 2 8 12 14 17 19 17 12 11 10 11 11 16 18 17 18 17 17 16 17 17 19 15 14 10 12 12 8 8 11 8 7 5 3 3 2 2 3 4 7 9 5 5 7
4 4 6 3 6 3 12 9 12 13 10 12 9 6 7 9 14 14 19 21 19 19 18 18 18 18 17 15 14 12 12 11 9 11 11 12 9 8 6 5 3 2 1 2 5 7 8 5 5
8 7 7 10 7 3 2 4 8 14 15 17 13 10 10 6 12 16 18 22 22 19 18 17 19 18 16 15 14 14 14 12 12 12 12 11 12 11 9 7 5 4 2 1 2 4 7 6 4
1 3 10 7 3 3 6 3 5 13 15 20 21 17 10 11 7 14 21 20 19 17 18 17 17 19 16 16 14 13 14 12 9 12 13 12 11 10 10 10 7 6 4 3 3 3 6 8 9
9 10 9 6 2 4 6 7 6 11 20 20 22 21 16 11 5 9 14 15 17 17 16 16 17 19 18 18 15 15 12 13 9 9 11 10 8 8 10 10 9 7 4 6 4 3 3 6 7
4 11 4 3 4 3 2 6 4 11 8 18 23 25 20 10 7 8 14 16 16 17 17 16 16 16 18 16 14 15 12 12 9 9 12 11 9 10 10 9 13 8 6 6 5 3 1 2 4
15 12 7 13 6 6 5 6 2 4 6 9 19 22 18 16 8 6 14 16 16 16 18 18 17 17 16 16 15 13 10 9 9 11 10 10 11 10 10 9 11 8 7 7 7 4 2 1 1
7 9 4 3 1 5 3 3 5 3 5 9 17 19 19 17 10 9 11 13 14 16 18 19 17 17 17 17 16 14 12 10 10 10 11 10 11 11 9 9 11 9 8 9 9 7 5 4 2
7 6 7 3 8 7 4 4 4 6 7 11 16 20 21 18 13 10 11 12 10 13 14 17 18 20 21 19 17 15 12 11 10 11 9 12 13 12 11 11 11 11 10 9 10 8 8 6 4
4 5 2 3 3 9 4 4 2 7 10 11 14 16 19 19 17 11 9 10 9 10 12 15 16 17 19 22 18 16 12 9 8 7 8 14 12 12 12 12 11 12 12 12 12 11 9 8 7
1 1 4 7 7 1 4 4 3 5 9 9 10 10 13 14 13 11 10 7 6 6 8 14 13 15 16 18 18 14 13 11 9 7 4 12 13 11 12 12 12 12 12 13 12 11 10 10 8
Wind_Direction
132 144 130 317 276 161 87 102 106 130 143 152 152 163 120 43 33 100 142 151 144 142 140 139 130 125 115 117 109 103 97 91 86 87 93 95 100 97 95 97 96 96 93 97 93 91 94 91 92
132 153 74 315 302 99 76 106 133 139 139 141 121 128 97 76 73 120 131 147 144 138 136 136 132 130 121 118 114 104 97 89 89 85 88 94 99 101 100 102 99 95 93 94 92 92 94 92 91
93 144 203 32 52 89 109 128 134 125 136 145 112 68 60 74 118 131 140 144 142 138 138 138 132 129 124 120 119 115 104 97 97 98 99 100 94 97 95 102 98 97 94 92 91 94 93 92 90
71 356 103 80 70 62 97 144 134 134 147 65 116 76 84 125 125 140 141 141 139 137 135 140 137 133 135 133 124 116 112 108 99 92 94 92 92 92 95 95 95 91 89 82 83 79 85 86 74
58 29 233 98 71 59 109 139 142 145 151 125 100 98 108 78 130 138 140 142 139 136 137 137 136 129 128 133 140 134 123 120 106 99 92 97 93 94 93 97 96 94 85 72 71 68 75 80 66
114 263 33 64 98 99 89 100 134 129 126 119 105 113 88 127 139 142 141 138 140 136 136 132 134 131 131 129 134 132 133 120 115 108 99 97 92 96 97 98 99 96 84 73 68 64 79 72 64
101 128 60 57 118 105 90 98 105 113 116 96 128 106 113 145 145 143 141 137 136 135 131 130 132 134 129 131 121 131 133 130 116 109 99 96 90 92 97 96 95 95 86 77 72 72 76 62 56
129 94 44 23 149 105 93 93 94 105 88 111 136 140 153 157 148 142 140 137 137 136 134 134 130 135 131 125 133 135 137 142 125 118 98 97 87 93 93 91 98 101 94 82 66 69 67 55 49
193 89 77 299 145 99 140 124 75 114 123 84 103 142 137 147 146 143 143 142 142 140 140 136 132 133 129 127 124 124 122 126 130 120 120 107 95 93 92 100 94 98 96 78 63 67 63 51 42
51 94 133 195 175 152 143 114 120 133 118 89 110 114 137 149 154 155 157 155 156 154 152 148 143 136 133 131 130 126 125 126 126 123 120 102 100 98 99 97 95 94 96 90 72 41 19 18 25
120 135 164 200 210 186 140 137 93 133 147 175 148 141 151 157 160 164 166 161 160 159 159 156 150 145 135 138 136 128 133 131 131 131 125 116 105 100 101 101 97 93 93 76 25 341 331 318 321
171 202 171 167 184 164 149 109 111 53 328 144 145 147 154 164 166 173 173 166 163 163 163 160 157 154 144 141 131 129 128 130 130 129 126 121 110 107 102 97 91 87 84 68 32 9 4 356 332
224 163 185 174 174 153 128 112 111 85 113 138 143 149 158 167 171 177 178 171 165 167 166 168 166 159 156 149 140 133 126 124 130 129 129 128 119 109 94 88 86 83 78 65 48 49 43 42 48
181 160 134 180 169 141 120 86 58 244 143 146 155 162 169 174 176 175 182 176 174 172 172 170 173 167 162 154 150 143 136 135 134 134 136 130 116 106 97 83 75 78 86 52 42 47 49 55 55
136 133 105 122 140 107 94 126 203 164 166 163 168 172 174 179 180 182 181 183 176 177 173 171 173 173 163 158 152 149 141 143 139 142 142 131 111 112 95 79 69 75 63 43 41 42 40 39 45
144 150 156 164 150 141 182 195 210 184 171 174 177 181 184 184 189 188 184 187 175 174 179 169 173 175 175 167 161 160 152 151 144 143 146 141 129 133 110 69 94 82 51 42 39 34 29 32 20
99 159 140 148 167 155 205 131 184 192 184 182 179 186 190 185 194 197 190 188 181 180 180 180 178 180 177 169 165 166 161 159 160 164 166 151 141 128 102 115 112 85 48 41 38 26 35 40 25
161 145 152 129 163 170 185 116 161 181 175 186 173 192 196 195 197 193 193 193 184 185 190 189 184 188 193 193 183 183 178 177 171 184 186 180 163 133 132 119 123 70 81 49 35 38 42 36 12
122 118 131 122 158 159 164 143 159 164 176 194 187 195 206 209 201 194 192 194 188 188 190 198 198 195 190 190 186 190 190 188 183 178 172 179 185 175 157 159 125 91 74 59 38 39 38 31 18
134 127 99 106 139 144 159 157 162 171 185 181 182 198 203 204 200 198 192 194 194 190 195 197 205 208 205 203 199 191 192 195 196 185 181 185 184 199 184 164 168 131 77 62 42 42 27 35 33
181 175 159 113 150 160 157 141 168 188 179 159 146 186 160 226 206 200 199 196 199 191 194 199 207 212 198 190 195 206 199 200 199 196 194 201 205 218 216 209 212 216 92 72 53 46 44 45 52
208 203 155 145 178 158 231 160 205 183 192 182 174 178 187 191 214 206 207 201 199 194 194 200 203 205 203 195 187 195 195 194 207 203 199 207 212 218 218 217 224 223 228 149 85 63 54 53 59
230 181 181 162 124 194 182 223 137 191 205 205 189 188 179 193 202 202 211 209 203 192 191 199 202 205 206 204 194 195 194 204 207 200 199 199 199 203 206 206 217 211 210 203 166 102 70 64 69
141 120 94 91 129 238 182 223 175 185 215 206 205 197 186 184 186 211 204 202 202 195 193 198 202 209 211 211 205 206 200 203 197 199 187 190 190 196 201 200 206 197 193 184 174 137 78 74 74
204 181 156 163 190 230 171 191 278 189 214 211 201 200 192 177 164 194 184 189 200 195 195 197 201 207 208 213 215 212 222 215 218 203 202 200 192 193 188 190 190 191 196 195 191 175 122 69 74
204 228 226 207 195 198 137 219 188 239 251 237 202 193 182 178 160 174 195 192 196 194 197 195 205 210 206 210 218 223 220 218 211 206 203 204 202 190 196 202 193 200 213 215 212 214 207 209 64
181 220 280 127 76 214 167 225 217 196 210 194 192 182 185 177 149 156 171 181 190 185 197 200 202 209 210 205 212 223 226 219 222 223 216 207 205 211 214 206 205 212 222 224 229 221 225 224 235
220 158 198 239 179 216 191 259 236 202 191 185 189 189 188 185 172 165 163 166 177 184 194 196 199 207 209 212 209 217 223 218 228 228 230 214 214 215 218 224 214 214 220 221 226 228 229 226 234
167 199 194 221 272 225 197 227 144 189 186 188 190 192 188 188 196 173 162 178 167 175 183 189 192 198 204 209 216 220 221 210 212 219 242 215 211 217 221 224 224 228 224 226 224 220 226 232 236
285 85 219 225 186 242 282 212 160 189 174 175 181 182 196 195 190 200 196 185 206 197 173 182 190 197 201 202 212 213 210 217 206 217 235 208 212 221 227 236 233 235 239 231 233 227 227 228 231
Height
791 792 792 792 803 797 800 800 789 804 808 799 803 805 811 816 818 828 826 828 830 833 836 838 839 840 841 842 843 844 845 845 845 845 846 847 848 848 849 850 851 852 852 852 853 852 853 854 855
791 792 793 791 799 803 808 791 798 797 796 798 801 805 810 825 819 824 828 831 833 835 837 839 840 841 842 844 845 846 847 847 847 848 848 850 851 852 852 854 855 855 855 856 855 856 857 858 859
791 792 794 797 806 804 804 792 792 794 796 801 806 806 813 824 823 826 829 832 835 837 839 840 841 843 844 845 847 848 849 850 850 851 851 852 853 854 855 856 856 857 858 858 859 859 858 861 861
790 793 795 800 801 795 793 788 787 794 798 800 804 818 820 822 826 828 831 834 837 840 842 842 843 845 846 847 849 851 852 852 853 854 856 856 856 857 857 858 859 860 860 860 860 861 861 862 862
790 795 802 798 798 793 787 784 784 794 799 803 804 824 825 827 828 831 833 836 839 842 844 846 846 847 848 849 850 852 854 855 856 857 858 859 860 860 861 862 863 863 863 864 863 864 864 864 866
794 794 806 807 802 795 791 789 790 795 801 807 813 817 828 830 830 834 836 839 842 844 845 847 848 849 851 851 852 854 855 856 858 859 860 861 861 863 863 864 865 865 866 866 866 866 867 867 867
794 796 814 806 804 803 799 790 798 801 804 810 808 821 830 832 834 836 839 841 844 846 847 849 851 852 852 854 854 856 857 859 860 861 863 864 863 865 865 866 867 867 869 869 869 869 869 869 869
792 797 811 813 805 812 796 797 799 801 810 807 809 825 833 831 835 838 841 843 846 848 849 851 852 854 855 856 856 858 858 860 862 863 865 866 867 868 868 869 870 871 871 872 872 872 872 873 873
792 806 819 818 807 809 795 802 799 799 805 809 811 815 822 831 835 839 842 845 847 849 851 852 854 856 857 858 859 859 861 862 864 865 866 867 869 870 872 872 872 873 873 874 875 875 875 875 875
790 809 813 803 803 806 799 798 801 805 811 820 818 823 829 834 836 838 840 843 847 850 853 854 856 857 858 860 860 861 862 864 866 867 868 869 870 872 873 874 875 876 876 877 877 877 877 877 877
790 804 797 799 797 798 799 800 801 809 816 814 815 822 830 833 837 839 841 843 847 851 854 856 858 858 859 860 862 863 864 866 868 869 870 871 873 875 876 877 878 879 879 880 879 879 878 878 878
797 791 791 791 794 798 804 801 809 813 814 810 817 821 828 833 835 838 841 845 848 852 855 857 859 860 861 862 864 864 866 868 870 871 872 873 876 877 878 879 879 880 880 881 880 879 878 877 878
793 790 789 788 792 798 801 810 816 821 814 817 823 827 830 834 836 839 842 846 849 853 855 858 860 861 863 864 865 866 868 870 871 872 874 875 876 878 879 880 881 881 881 882 881 880 879 879 879
786 788 792 795 795 801 810 820 817 824 819 821 824 826 830 834 837 840 843 846 849 853 855 858 861 862 864 866 867 868 869 871 873 874 876 877 878 879 881 882 883 883 883 882 882 881 881 881 881
786 797 797 801 800 811 813 829 828 820 820 824 826 828 831 835 838 840 843 846 849 853 855 859 861 864 865 867 869 870 871 873 874 875 877 878 880 881 882 883 884 884 884 883 883 883 883 883 883
793 797 808 806 803 812 815 830 821 820 822 827 827 829 831 835 838 841 844 847 850 853 856 859 862 865 866 868 870 871 873 874 876 877 879 880 881 882 883 884 885 885 885 885 884 884 884 883 883
801 806 803 811 802 812 818 814 815 817 823 826 826 827 831 835 838 841 844 847 851 854 857 860 862 866 867 869 870 872 874 876 877 879 880 881 882 883 884 885 886 887 886 886 886 885 884 884 884
802 803 802 804 806 806 813 814 811 815 824 824 827 828 830 832 834 839 843 847 850 854 857 860 863 865 868 869 870 872 875 876 878 879 881 882 884 884 885 887 887 887 888 888 887 886 885 885 884
790 796 802 803 799 805 809 812 812 816 825 827 828 828 828 830 834 838 843 846 849 853 856 859 862 864 867 869 871 873 875 876 878 879 881 883 884 886 887 888 888 888 889 889 888 887 886 886 884
792 797 806 807 804 805 812 816 814 814 817 820 827 830 830 831 834 838 841 845 847 850 854 858 860 863 865 867 869 872 873 875 878 879 881 883 885 887 888 889 889 889 890 890 890 888 888 887 885
794 796 803 802 807 804 809 824 824 818 820 823 828 829 829 829 830 834 838 841 845 848 852 855 859 862 864 866 869 871 873 875 877 878 880 882 885 886 888 889 890 890 890 891 891 890 889 888 887
799 789 793 803 805 816 810 830 827 818 821 821 826 827 826 828 828 831 836 838 841 845 850 854 857 861 865 865 868 870 872 874 875 877 878 881 883 885 887 888 889 890 891 891 892 892 890 889 888
793 788 789 796 808 808 815 816 813 819 822 819 817 819 821 825 828 827 831 836 840 845 849 853 857 860 864 865 867 869 871 873 875 876 878 879 882 883 885 887 889 890 891 892 893 893 892 891 890
788 793 800 805 811 825 803 807 812 820 806 808 810 812 816 823 823 826 830 835 840 844 848 852 856 859 862 864 865 867 870 872 873 874 876 879 881 882 884 886 888 890 891 892 893 893 894 893 892
792 792 822 830 831 819 811 816 793 800 798 796 800 805 811 819 820 823 828 833 837 841 846 850 855 858 861 863 864 866 867 868 869 873 876 878 880 881 883 885 887 889 890 891 892 893 894 894 894
793 787 794 822 821 805 814 813 793 797 796 792 791 797 810 815 819 822 824 828 834 839 843 847 852 856 859 862 864 866 867 868 870 872 874 877 879 881 882 883 886 887 889 890 891 893 894 894 894
792 802 778 795 805 801 803 799 793 797 794 791 792 799 809 814 816 821 823 826 831 835 840 844 848 853 857 860 863 865 866 868 870 871 873 875 878 880 880 882 884 886 887 889 890 892 892 893 893
776 770 795 792 815 815 814 807 790 802 797 791 793 795 802 811 815 820 822 825 829 832 838 841 845 848 853 858 860 863 865 867 868 870 871 872 874 876 879 880 882 883 885 886 888 890 891 891 892
782 782 785 778 788 794 808 800 790 790 792 795 791 793 799 806 812 816 821 824 827 830 835 839 842 846 850 854 859 861 863 864 866 868 869 870 872 875 876 879 881 882 883 884 885 887 889 889 890
779 783 778 783 802 795 789 790 791 790 790 794 797 799 798 803 811 815 820 824 828 831 833 836 841 844 847 851 856 858 861 864 864 865 867 868 870 873 875 876 877 879 881 883 885 886 887 887 888